Location: Praha
(50.0830°N, 14.4670°E)
Time: 19:53:46
(UTC+02:00)

ISS - Pass Details

Date: 04 May 2021
Orbit: 418 x 422 km, 51.6° (Epoch: 13 April)

Event Time Altitude Azimuth Distance (km) Brightness Sun altitude
Exits shadow 04:20:41 14° 256° (WSW) 1,308 -1.8 -10.5°
Maximum altitude 04:23:35 86° 345° (NNW) 428 -3.7 -10.1°
Drops below altitude 10° 04:26:59 10° 75° (ENE) 1,509 0.2 -9.7°
Sets 04:29:05 0° 76° (ENE) 2,376 1.4 -9.4°
